| time (UTC) | temp F | wind direction | speed knots | gust knots | rain 1hr in | rain 24hr in | rain mn in | humidity % | barometer mb |
| 20260507195502 | 48 | 45 | 0.0 | 0.0 | 0.00 | 0.00 | 0.00 | 70 | 1017.8 |
| 20260507194502 | 48 | 45 | 0.0 | 0.0 | 0.00 | 0.00 | 0.00 | 70 | 1017.6 |
| 20260507193502 | 48 | 45 | 0.0 | 0.0 | 0.00 | 0.00 | 0.00 | 70 | 1017.5 |
| 20260507192502 | 48 | 45 | 0.0 | 0.0 | 0.00 | 0.00 | 0.00 | 70 | 1017.4 |
| 20260507191502 | 49 | 45 | 0.0 | 0.0 | 0.00 | 0.00 | 0.00 | 70 | 1017.3 |
| 20260507190503 | 49 | 45 | 0.0 | 0.0 | 0.00 | 0.00 | 0.00 | 70 | 1017.2 |
| 20260507185502 | 49 | 45 | 0.0 | 0.0 | 0.00 | 0.00 | 0.00 | 69 | 1017.1 |
| 20260507184502 | 49 | 45 | 0.0 | 0.0 | 0.00 | 0.00 | 0.00 | 69 | 1017.1 |
| 20260507183502 | 50 | 67 | 0.0 | 0.0 | 0.00 | 0.00 | 0.00 | 69 | 1017.0 |
| 20260507182502 | 50 | 67 | 0.0 | 0.0 | 0.00 | 0.00 | 0.00 | 69 | 1016.9 |
| 20260507181502 | 50 | 67 | 0.0 | 0.0 | 0.00 | 0.00 | 0.00 | 69 | 1016.8 |
| 20260507180502 | 51 | 67 | 0.0 | 0.0 | 0.00 | 0.00 | 0.00 | 69 | 1016.7 |
| 20260507175502 | 51 | 22 | 0.0 | 0.0 | 0.00 | 0.00 | 0.00 | 69 | 1016.7 |
| 20260507174502 | 51 | 67 | 0.0 | 0.0 | 0.00 | 0.00 | 0.00 | 69 | 1016.7 |
| 20260507173502 | 51 | 67 | 0.0 | 0.0 | 0.00 | 0.00 | 0.00 | 69 | 1016.4 |
| 20260507172502 | 51 | 67 | 0.0 | 0.0 | 0.00 | 0.00 | 0.00 | 70 | 1016.4 |
| 20260507171502 | 51 | 112 | 0.0 | 0.0 | 0.00 | 0.00 | 0.00 | 70 | 1016.2 |
| 20260507170502 | 51 | 112 | 0.0 | 0.0 | 0.00 | 0.00 | 0.00 | 70 | 1016.2 |
| 20260507165502 | 51 | 157 | 0.0 | 0.0 | 0.00 | 0.00 | 0.00 | 70 | 1016.4 |
| 20260507164502 | 51 | 157 | 0.0 | 0.0 | 0.00 | 0.00 | 0.00 | 70 | 1016.4 |
| 20260507163502 | 51 | 157 | 0.0 | 0.0 | 0.00 | 0.00 | 0.00 | 70 | 1016.1 |
| 20260507162502 | 51 | 157 | 0.0 | 0.0 | 0.00 | 0.00 | 0.00 | 70 | 1016.2 |
| 20260507161502 | 51 | 157 | 0.0 | 0.0 | 0.00 | 0.00 | 0.00 | 70 | 1016.1 |
| 20260507160502 | 51 | 157 | 0.0 | 0.0 | 0.00 | 0.00 | 0.00 | 70 | 1016.2 |
| 20260507155502 | 51 | 157 | 0.0 | 0.0 | 0.00 | 0.00 | 0.00 | 70 | 1016.2 |
| 20260507154502 | 51 | 157 | 0.0 | 0.0 | 0.00 | 0.00 | 0.00 | 70 | 1016.0 |
| 20260507153502 | 51 | 157 | 0.0 | 0.0 | 0.00 | 0.00 | 0.00 | 70 | 1015.9 |
| 20260507152502 | 51 | 157 | 0.0 | 0.0 | 0.00 | 0.00 | 0.00 | 70 | 1015.9 |
| 20260507151502 | 51 | 157 | 0.0 | 0.0 | 0.00 | 0.00 | 0.00 | 69 | 1015.8 |
| 20260507150502 | 51 | 157 | 0.0 | 0.0 | 0.00 | 0.00 | 0.00 | 69 | 1015.7 |
| 20260507145502 | 51 | 157 | 0.0 | 0.0 | 0.00 | 0.00 | 0.00 | 69 | 1015.6 |
| 20260507144502 | 51 | 157 | 0.0 | 0.0 | 0.00 | 0.00 | 0.00 | 69 | 1015.6 |
| 20260507143502 | 52 | 157 | 0.0 | 0.0 | 0.00 | 0.00 | 0.00 | 69 | 1015.5 |
| 20260507142502 | 52 | 157 | 0.0 | 0.0 | 0.00 | 0.00 | 0.00 | 68 | 1015.6 |
| 20260507141502 | 52 | 180 | 0.0 | 0.0 | 0.00 | 0.00 | 0.00 | 68 | 1015.4 |
| 20260507140502 | 52 | 157 | 0.0 | 0.0 | 0.00 | 0.00 | 0.00 | 68 | 1015.3 |
| 20260507135502 | 52 | 180 | 0.0 | 0.0 | 0.00 | 0.00 | 0.00 | 68 | 1015.2 |
| 20260507134502 | 52 | 180 | 0.0 | 0.0 | 0.00 | 0.00 | 0.00 | 68 | 1015.2 |
| 20260507133502 | 52 | 157 | 0.0 | 0.0 | 0.00 | 0.00 | 0.00 | 68 | 1015.1 |
| 20260507132502 | 52 | 135 | 0.0 | 0.0 | 0.00 | 0.00 | 0.00 | 68 | 1015.2 |
| 20260507131502 | 52 | 67 | 0.0 | 0.0 | 0.00 | 0.00 | 0.00 | 67 | 1015.0 |
| 20260507130503 | 52 | 315 | 0.0 | 0.0 | 0.00 | 0.00 | 0.00 | 67 | 1015.0 |
| 20260507125503 | 51 | 157 | 0.0 | 0.0 | 0.00 | 0.00 | 0.00 | 68 | 1015.1 |
| 20260507124503 | 51 | 247 | 0.0 | 0.0 | 0.00 | 0.00 | 0.00 | 68 | 1015.0 |
| 20260507123503 | 51 | 45 | 0.0 | 0.0 | 0.00 | 0.00 | 0.00 | 69 | 1015.0 |
| 20260507122503 | 50 | 67 | 0.0 | 0.0 | 0.00 | 0.00 | 0.00 | 69 | 1014.8 |
| 20260507121503 | 50 | 67 | 0.0 | 0.0 | 0.00 | 0.00 | 0.00 | 69 | 1014.9 |
| 20260507120503 | 50 | 45 | 0.0 | 0.0 | 0.00 | 0.00 | 0.00 | 69 | 1014.8 |
| 20260507115503 | 50 | 45 | 0.0 | 0.0 | 0.00 | 0.00 | 0.00 | 69 | 1014.9 |
| 20260507114503 | 49 | 157 | 0.0 | 0.0 | 0.00 | 0.00 | 0.00 | 69 | 1014.8 |
| 20260507113503 | 49 | 67 | 0.0 | 0.0 | 0.00 | 0.00 | 0.00 | 70 | 1014.8 |
| 20260507112503 | 49 | 67 | 0.0 | 0.0 | 0.00 | 0.00 | 0.00 | 70 | 1014.8 |
| 20260507111503 | 49 | 45 | 0.0 | 0.0 | 0.00 | 0.00 | 0.00 | 70 | 1014.8 |
| 20260507110503 | 49 | 337 | 0.0 | 0.0 | 0.00 | 0.00 | 0.00 | 70 | 1014.8 |
| 20260507105503 | 49 | 135 | 0.0 | 0.0 | 0.00 | 0.04 | 0.00 | 70 | 1014.7 |
| 20260507104503 | 48 | 180 | 0.0 | 0.0 | 0.00 | 0.04 | 0.00 | 70 | 1014.7 |
| 20260507103503 | 48 | 22 | 0.0 | 0.0 | 0.00 | 0.04 | 0.00 | 71 | 1014.7 |
| 20260507102503 | 47 | 67 | 0.0 | 0.0 | 0.00 | 0.04 | 0.00 | 71 | 1014.6 |
| 20260507101503 | 47 | 90 | 0.0 | 0.0 | 0.00 | 0.04 | 0.00 | 71 | 1014.5 |
| 20260507100503 | 47 | 180 | 0.0 | 0.0 | 0.00 | 0.04 | 0.00 | 72 | 1014.5 |
| 20260507095503 | 47 | 135 | 0.0 | 0.0 | 0.00 | 0.10 | 0.00 | 72 | 1014.3 |
| 20260507094503 | 47 | 270 | 0.0 | 0.0 | 0.00 | 0.10 | 0.00 | 72 | 1014.1 |
| 20260507093503 | 47 | 67 | 0.0 | 0.0 | 0.00 | 0.10 | 0.00 | 72 | 1013.9 |
| 20260507092503 | 46 | 315 | 0.0 | 0.0 | 0.00 | 0.10 | 0.00 | 72 | 1014.0 |
| 20260507091503 | 46 | 67 | 0.0 | 0.0 | 0.00 | 0.10 | 0.00 | 72 | 1013.7 |
| 20260507090503 | 46 | 157 | 0.0 | 0.0 | 0.00 | 0.10 | 0.00 | 72 | 1013.8 |
| 20260507085503 | 46 | 67 | 0.0 | 0.0 | 0.00 | 0.20 | 0.00 | 72 | 1013.6 |
| 20260507084503 | 46 | 270 | 0.0 | 0.0 | 0.00 | 0.20 | 0.00 | 72 | 1013.5 |
| 20260507083503 | 46 | 337 | 0.0 | 0.0 | 0.00 | 0.20 | 0.00 | 72 | 1013.4 |
| 20260507082503 | 46 | 67 | 0.0 | 0.0 | 0.00 | 0.20 | 0.00 | 72 | 1013.3 |
| 20260507081503 | 46 | 270 | 0.0 | 0.0 | 0.00 | 0.20 | 0.00 | 72 | 1013.2 |
| 20260507080503 | 47 | 112 | 0.0 | 0.0 | 0.00 | 0.20 | 0.00 | 72 | 1013.0 |
| 20260507075503 | 47 | 157 | 0.0 | 0.0 | 0.00 | 0.30 | 0.00 | 72 | 1013.0 |
| 20260507074759 | 47 | 45 | 0.0 | 0.0 | 0.00 | 0.30 | 0.00 | 72 | 1012.8 |
| 20260507074503 | 47 | 45 | 0.0 | 0.0 | 0.00 | 0.30 | 0.00 | 72 | 1012.8 |
| 20260507073503 | 46 | 157 | 0.0 | 0.0 | 0.00 | 0.30 | 0.00 | 72 | 1012.7 |
| 20260507072503 | 46 | 0 | 0.0 | 0.0 | 0.00 | 0.30 | 0.00 | 72 | 1012.6 |
| 20260507071504 | 46 | 135 | 0.0 | 0.0 | 0.00 | 0.30 | 0.00 | 72 | 1012.8 |
| 20260507070503 | 46 | 0 | 0.0 | 0.0 | 0.00 | 0.30 | 0.00 | 72 | 1012.6 |
| 20260507065503 | 46 | 67 | 0.0 | 0.0 | 0.00 | 0.38 | 0.00 | 72 | 1012.4 |
| 20260507064504 | 46 | 45 | 0.0 | 0.0 | 0.00 | 0.38 | 0.00 | 72 | 1012.6 |
| 20260507063503 | 46 | 90 | 0.0 | 0.0 | 0.00 | 0.38 | 0.00 | 72 | 1012.5 |
| 20260507062503 | 46 | 112 | 0.0 | 0.0 | 0.00 | 0.38 | 0.00 | 72 | 1012.5 |
| 20260507061503 | 46 | 112 | 0.0 | 0.0 | 0.00 | 0.38 | 0.00 | 72 | 1012.3 |
| 20260507060503 | 45 | 135 | 0.0 | 0.0 | 0.00 | 0.38 | 0.00 | 72 | 1012.3 |
| 20260507055503 | 45 | 157 | 0.0 | 0.0 | 0.00 | 0.42 | 0.00 | 72 | 1012.1 |
| 20260507054504 | 45 | 67 | 0.0 | 0.0 | 0.00 | 0.42 | 0.00 | 72 | 1011.9 |
| 20260507053503 | 45 | 90 | 0.0 | 0.0 | 0.00 | 0.42 | 0.00 | 72 | 1012.0 |
| 20260507052503 | 45 | 112 | 0.0 | 0.0 | 0.00 | 0.42 | 0.00 | 72 | 1011.9 |
| 20260507051504 | 45 | 225 | 0.0 | 0.0 | 0.00 | 0.42 | 0.00 | 72 | 1011.9 |
| 20260507050504 | 45 | 22 | 0.0 | 0.0 | 0.00 | 0.42 | 0.00 | 72 | 1011.7 |
| 20260507045504 | 44 | 135 | 0.0 | 0.0 | 0.00 | 0.50 | 0.00 | 72 | 1011.7 |
| 20260507044504 | 44 | 202 | 0.0 | 0.0 | 0.00 | 0.50 | 0.00 | 72 | 1011.6 |
| 20260507043504 | 44 | 67 | 0.0 | 0.0 | 0.00 | 0.50 | 0.00 | 72 | 1011.6 |
| 20260507042504 | 44 | 45 | 0.0 | 0.0 | 0.00 | 0.50 | 0.00 | 72 | 1011.2 |
| 20260507041504 | 44 | 45 | 0.0 | 0.0 | 0.00 | 0.50 | 0.00 | 72 | 1011.2 |
| 20260507040504 | 44 | 135 | 0.0 | 0.0 | 0.00 | 0.50 | 0.00 | 73 | 1011.1 |
| 20260507035504 | 44 | 112 | 0.0 | 0.0 | 0.00 | 0.59 | 0.00 | 73 | 1011.1 |
| 20260507034504 | 44 | 67 | 0.0 | 0.0 | 0.00 | 0.59 | 0.00 | 73 | 1011.0 |
| 20260507033504 | 44 | 67 | 0.0 | 0.0 | 0.00 | 0.59 | 0.00 | 72 | 1011.0 |
| 20260507032504 | 44 | 337 | 0.0 | 0.0 | 0.00 | 0.59 | 0.00 | 73 | 1011.0 |
| 20260507031504 | 44 | 45 | 0.0 | 0.0 | 0.00 | 0.59 | 0.00 | 73 | 1011.0 |
| 20260507030504 | 44 | 112 | 0.0 | 0.0 | 0.00 | 0.59 | 0.00 | 73 | 1010.8 |
| 20260507025504 | 45 | 180 | 0.0 | 0.0 | 0.00 | 0.75 | 0.00 | 72 | 1010.8 |
| 20260507024504 | 45 | 90 | 0.0 | 0.0 | 0.00 | 0.75 | 0.00 | 72 | 1010.9 |
| 20260507023504 | 45 | 157 | 0.0 | 0.0 | 0.00 | 0.75 | 0.00 | 72 | 1010.8 |
| 20260507022504 | 45 | 157 | 0.0 | 0.0 | 0.00 | 0.75 | 0.00 | 72 | 1010.7 |
| 20260507021504 | 45 | 157 | 0.0 | 0.0 | 0.00 | 0.75 | 0.00 | 72 | 1010.7 |
| 20260507020504 | 45 | 22 | 0.0 | 0.0 | 0.00 | 0.75 | 0.00 | 72 | 1010.7 |
| 20260507015504 | 45 | 45 | 0.0 | 0.0 | 0.00 | 0.85 | 0.00 | 72 | 1010.7 |
| 20260507014504 | 45 | 135 | 0.0 | 0.0 | 0.00 | 0.85 | 0.00 | 72 | 1010.5 |
| 20260507013504 | 45 | 45 | 0.0 | 0.0 | 0.00 | 0.85 | 0.00 | 72 | 1010.4 |
| 20260507012504 | 45 | 67 | 0.0 | 0.0 | 0.00 | 0.85 | 0.00 | 72 | 1010.4 |
| 20260507011504 | 45 | 135 | 0.0 | 0.0 | 0.00 | 0.85 | 0.00 | 72 | 1010.4 |
| 20260507010504 | 45 | 22 | 0.0 | 0.0 | 0.00 | 0.85 | 0.00 | 72 | 1010.2 |
| 20260507005504 | 45 | 135 | 0.0 | 0.0 | 0.00 | 0.85 | 0.00 | 72 | 1010.0 |
| 20260507004504 | 45 | 135 | 0.0 | 0.0 | 0.00 | 0.85 | 0.00 | 72 | 1009.9 |
| 20260507003504 | 45 | 112 | 0.0 | 0.0 | 0.00 | 0.85 | 0.00 | 72 | 1009.8 |
| 20260507002504 | 45 | 112 | 0.0 | 0.0 | 0.00 | 0.85 | 0.00 | 72 | 1009.8 |
| 20260507001504 | 45 | 112 | 0.0 | 0.0 | 0.00 | 0.85 | 0.00 | 72 | 1009.7 |
| 20260507000505 | 45 | 112 | 0.0 | 0.0 | 0.00 | 0.85 | 0.00 | 72 | 1009.7 |
| 20260506235504 | 45 | 90 | 0.0 | 0.0 | 0.00 | 0.85 | 0.00 | 72 | 1010.0 |
| 20260506234504 | 45 | 67 | 0.0 | 0.0 | 0.00 | 0.85 | 0.00 | 72 | 1010.0 |
| 20260506233504 | 45 | 112 | 0.0 | 0.0 | 0.00 | 0.85 | 0.00 | 72 | 1010.0 |
| 20260506232504 | 45 | 180 | 0.0 | 0.0 | 0.00 | 0.85 | 0.00 | 72 | 1009.9 |
| 20260506231504 | 45 | 22 | 0.0 | 0.0 | 0.00 | 0.85 | 0.00 | 72 | 1009.8 |
| 20260506230504 | 45 | 67 | 0.0 | 0.0 | 0.00 | 0.85 | 0.00 | 72 | 1009.8 |
| 20260506225504 | 45 | 157 | 0.0 | 0.0 | 0.00 | 0.85 | 0.00 | 72 | 1009.5 |
| 20260506224558 | 45 | 67 | 0.0 | 0.0 | 0.00 | 0.85 | 0.00 | 72 | 1009.5 |
| 20260506224504 | 45 | 67 | 0.0 | 0.0 | 0.00 | 0.85 | 0.00 | 72 | 1009.5 |
| 20260506223504 | 45 | 112 | 0.0 | 0.0 | 0.00 | 0.85 | 0.00 | 72 | 1009.4 |
| 20260506222504 | 46 | 135 | 0.0 | 0.0 | 0.00 | 0.85 | 0.00 | 72 | 1009.4 |
| 20260506221504 | 46 | 112 | 0.0 | 0.0 | 0.00 | 0.85 | 0.00 | 72 | 1009.5 |
| 20260506220504 | 46 | 112 | 0.0 | 0.0 | 0.00 | 0.85 | 0.00 | 72 | 1009.5 |
| 20260506215504 | 47 | 90 | 0.0 | 0.0 | 0.00 | 0.85 | 0.00 | 72 | 1009.6 |
| 20260506214504 | 48 | 22 | 0.0 | 0.0 | 0.00 | 0.85 | 0.00 | 72 | 1009.6 |
| 20260506213504 | 48 | 292 | 0.0 | 0.0 | 0.00 | 0.85 | 0.00 | 72 | 1009.4 |
| 20260506212505 | 49 | 45 | 0.0 | 0.0 | 0.00 | 0.85 | 0.00 | 72 | 1009.3 |
| 20260506211505 | 49 | 157 | 0.0 | 0.0 | 0.00 | 0.85 | 0.00 | 72 | 1009.1 |
| 20260506210505 | 49 | 90 | 0.0 | 0.0 | 0.00 | 0.85 | 0.00 | 72 | 1008.9 |
| 20260506205505 | 49 | 45 | 0.0 | 0.0 | 0.00 | 0.85 | 0.00 | 72 | 1008.9 |
| 20260506204505 | 50 | 67 | 0.0 | 0.0 | 0.00 | 0.85 | 0.00 | 72 | 1008.8 |
| 20260506203505 | 50 | 67 | 0.0 | 0.0 | 0.00 | 0.85 | 0.00 | 72 | 1008.5 |
| 20260506202505 | 50 | 67 | 0.0 | 0.0 | 0.00 | 0.85 | 0.00 | 72 | 1008.6 |
| 20260506201505 | 50 | 90 | 0.0 | 0.0 | 0.00 | 0.85 | 0.00 | 72 | 1008.5 |
| 20260506200505 | 50 | 90 | 0.0 | 0.0 | 0.00 | 0.85 | 0.00 | 72 | 1008.5 |